Weather History for Bloomington, IL

Change the Weather History Date:

Thursday, September 5, 2013

  Actual Average Record
Temperature  
Mean Temperature 76 °F -  
Max Temperature 88 °F 86 °F 93 °F (1998)
Min Temperature 63 °F 58 °F 48 °F (2010)
Cooling Degree Days 10    
Growing Degree Days 26 (Base 50)    
Moisture  
Dew Point 61 °F    
Average Humidity 65    
Maximum Humidity 81    
Minimum Humidity 44    
Precipitation  
Precipitation 0.00 in - - ()
Sea Level Pressure  
Sea Level Pressure 30.17 in    
Wind  
Wind Speed 6 mph (NE)    
Max Wind Speed 13 mph    
Max Gust Speed -    
Visibility 10 miles    
Events      
Averages and records for this station are not official NWS values.
T = Trace of Precipitation, MM = Missing Value Source: NWS Daily Summary

Daily Weather History Graph

Daily Weather History Graph

Search for Another Location

Airport:

Trip Planner

Search our weather history database for the weather conditions in past years. The results will help you decide how hot, cold, wet, or windy it might be!

Date:

Astronomy

Sep. 05, 2013 Rise Set
Actual Time 6:27 AM CDT 7:20 PM CDT
Civil Twilight 5:59 AM CDT 7:48 PM CDT
Nautical Twilight 5:26 AM CDT 8:21 PM CDT
Astronomical Twilight 4:51 AM CDT 8:55 PM CDT
Moon 6:38 AM CDT (9/5) 7:12 PM CDT (9/5)
Length of Visible Light 13h 49m
Length of Day
12h 53m
New Moon, 0% of the Moon is Illuminated
Sep 5
New Moon
Sep 12
First Quarter
Sep 19
Full
Sep 26
Last Quarter
Oct 4
New

Hourly Weather History & Observations

Time (CDT) Temp. Heat Index Dew Point Humidity Pressure Visibility Wind Dir Wind Speed Gust Speed Precip Events Conditions
12:56 AM 65.8 °F - 59.0 °F 79% 30.13 in 10.0 mi SW 5.8 mph - N/A   Clear
1:56 AM 64.9 °F - 57.9 °F 78% 30.13 in 10.0 mi SW 4.6 mph - N/A   Clear
2:56 AM 64.9 °F - 59.0 °F 81% 30.14 in 10.0 mi SW 5.8 mph - N/A   Clear
3:56 AM 64.9 °F - 59.0 °F 81% 30.14 in 10.0 mi SW 4.6 mph - N/A   Clear
4:56 AM 65.8 °F - 57.9 °F 76% 30.15 in 10.0 mi WSW 4.6 mph - N/A   Clear
5:56 AM 63.9 °F - 57.9 °F 81% 30.15 in 10.0 mi WSW 3.5 mph - N/A   Clear
6:56 AM 63.9 °F - 57.9 °F 81% 30.17 in 10.0 mi Calm Calm - N/A   Clear
7:56 AM 70.0 °F - 59.9 °F 70% 30.18 in 10.0 mi NW 3.5 mph - N/A   Clear
8:56 AM 75.9 °F - 59.0 °F 56% 30.18 in 10.0 mi NNW 5.8 mph - N/A   Clear
9:56 AM 79.0 °F - 59.0 °F 50% 30.19 in 10.0 mi North 6.9 mph - N/A   Clear
10:56 AM 81.0 °F 81.7 °F 61.0 °F 50% 30.20 in 10.0 mi Variable 4.6 mph - N/A   Clear
11:56 AM 83.8 °F 84.3 °F 61.9 °F 47% 30.20 in 10.0 mi Variable 3.5 mph - N/A   Clear
12:56 PM 84.9 °F 85.4 °F 61.9 °F 46% 30.19 in 10.0 mi ESE 3.5 mph - N/A   Partly Cloudy
1:56 PM 86.9 °F 87.8 °F 63.0 °F 45% 30.17 in 10.0 mi Variable 3.5 mph - 0.00 in   Partly Cloudy
2:56 PM 88.0 °F 89.0 °F 63.9 °F 44% 30.16 in 10.0 mi NE 8.1 mph - 0.00 in   Scattered Clouds
3:56 PM 88.0 °F 89.0 °F 63.9 °F 44% 30.14 in 10.0 mi NE 9.2 mph - N/A   Clear
4:56 PM 86.9 °F 88.6 °F 64.9 °F 48% 30.14 in 10.0 mi NE 9.2 mph - N/A   Clear
5:56 PM 82.9 °F 85.0 °F 65.8 °F 56% 30.15 in 10.0 mi NE 12.7 mph - N/A   Clear
6:56 PM 79.0 °F - 66.9 °F 66% 30.15 in 10.0 mi NE 8.1 mph - N/A   Clear
7:56 PM 73.9 °F - 64.9 °F 73% 30.16 in 10.0 mi ENE 8.1 mph - N/A   Clear
8:56 PM 70.9 °F - 63.9 °F 78% 30.18 in 10.0 mi ENE 6.9 mph - N/A   Clear
9:56 PM 68.9 °F - 59.9 °F 73% 30.19 in 10.0 mi ENE 10.4 mph - N/A   Partly Cloudy
10:56 PM 65.8 °F - 57.9 °F 76% 30.19 in 10.0 mi ENE 9.2 mph - N/A   Clear
11:56 PM 64.9 °F - 55.9 °F 73% 30.19 in 10.0 mi ENE 9.2 mph - N/A   Mostly Cloudy